Flag for Canada Weather past 2 weeks in Sarnia, Ontario, Canada

Now
57 °F

Sunny.


Feels Like: 53 °F
Forecast: N/A
Wind: 22 mph from South

Location: Sarnia Airport


UV Index: N/A

Visibility: 9 mi


Pressure: 30.28 "Hg

Humidity: 39%

Dew point: 32 °F

Location of SarniaLocation

Historic Weather in Sarnia

°F

Sarnia temperature yesterday

Maximum temperature yesterday: 41 °F (at 5:00 PM)
Minimum temperature yesterday: 21 °F (at 4:00 AM)
Average temperature yesterday: 31 °F

Past Weeks' High & Low Weather Summary

 TemperatureHumidityPressure
High72 °F (Apr 13, 2:00 PM)100% (Apr 4, 8:00 AM)30.50 "Hg (Apr 4, 8:00 AM)
Low21 °F (Apr 16, 4:00 AM)25% (Apr 11, 3:00 PM)29.41 "Hg (Apr 4, 2:00 PM)
Average42 °F70%29.93 "Hg
* Reported Apr 2 4:00 PM — Apr 17 4:00 PM, Sarnia, Weather by CustomWeather, © 2014

Note: Actual official high and low records may vary slightly from our data, if they occured in-between our weather recording intervals... More about our weather records

Advertising

Historic Weather Conditions — Data for Previous 24 hours

 ConditionsComfort  
Time TempWeatherWind HumidityBarometerVisibility
4:00 PM
Apr 17
57 °FSunny.23 mph39%30.28 "Hg9 mi
3:00 PM55 °FSunny.20 mph41%30.29 "Hg9 mi
2:00 PM54 °FSunny.15 mph44%30.33 "Hg9 mi
1:00 PM52 °FSunny.15 mph44%30.36 "Hg9 mi
12:00 PM48 °FSunny.16 mph43%30.37 "Hg9 mi
11:00 AM46 °FSunny.15 mph46%30.39 "Hg9 mi
10:00 AM43 °FSunny.18 mph49%30.39 "Hg9 mi
9:00 AM39 °FScattered clouds.18 mph56%30.40 "Hg9 mi
8:00 AM34 °FScattered clouds.14 mph70%30.40 "Hg9 mi
7:00 AM34 °FMostly cloudy.12 mph65%30.40 "Hg9 mi
6:00 AM32 °FOvercast.14 mph64%30.38 "Hg9 mi
5:00 AM30 °FOvercast.8 mph69%30.40 "Hg9 mi
4:00 AM30 °FClear.10 mph69%30.41 "Hg9 mi
3:00 AM32 °FClear.12 mph60%30.40 "Hg9 mi
2:00 AM30 °FClear.13 mph69%30.42 "Hg9 mi
1:00 AM30 °FClear.10 mph64%30.44 "Hg9 mi
12:00 AM30 °FOvercast.9 mph59%30.45 "Hg9 mi
11:00 PM
Apr 16
30 °FClear.8 mph59%30.47 "Hg9 mi
10:00 PM30 °FClear.7 mph59%30.47 "Hg9 mi
9:00 PM32 °FSunny.6 mph55%30.47 "Hg9 mi
8:00 PM36 °FSunny.9 mph41%30.46 "Hg9 mi
7:00 PM37 °FSunny.12 mph35%30.45 "Hg9 mi
6:00 PM39 °FSunny.13 mph48%30.44 "Hg9 mi
5:00 PM41 °FScattered clouds.13 mph49%30.44 "Hg9 mi
Weather by CustomWeather, © 2014

See weather overview